Regional Weather Roundup
Issued by NWS

Home | Current Version | Previous Version | Text Only | Print | Product List | Glossary On
Versions: 1 2 3 4 5 6 7 8 9 10 11 12 13 14 15 16 17 18 19 20 21 22 23 24 25 26 27 28 29 30 31 32 33 34 35 36 37 38 39 40 41 42 43 44 45 46 47 48 49 50
000
ASUS43 KLSX 030607
RWRMO

WEATHER SUMMARY FOR MISSOURI
NATIONAL WEATHER SERVICE SPRINGFIELD MO
1200 AM CST TUE MAR 03 2015

NOTE: "FAIR" INDICATES FEW OR NO CLOUDS BELOW 12,000 FEET WITH NO
       SIGNIFICANT WEATHER AND/OR OBSTRUCTIONS TO VISIBILITY.
       CURRENT SKY AND/OR WEATHER CONDITIONS ARE NOT AVAILABLE FOR
       CHILLICOTHE AND FARMINGTON.

MOZ001>031-035>038-043-044-053-054-030700-
...NORTHERN AND WESTERN MISSOURI...

CITY           SKY/WX    TMP DP  RH WIND       PRES   REMARKS
KANSAS CTY INT CLOUDY    34  27  75 S16       29.98F WCI  24
6HR MIN TEMP:  33; 6HR MAX TEMP:  34;

KANSAS C DTWN  CLOUDY    36  27  69 S16       30.00F WCI  26
6HR MIN TEMP:  35; 6HR MAX TEMP:  36;

LEE`S SUMMIT   CLOUDY    34  26  72 S13       30.00F WCI  25
6HR MIN TEMP:  33; 6HR MAX TEMP:  34;

ST JOSEPH      CLOUDY    33  23  66 S8        29.98F WCI  26
6HR MIN TEMP:  33; 6HR MAX TEMP:  35;

CHILLICOTHE      N/A     34  22  61 SE13      30.04F WCI  25
6HR MIN TEMP:  33; 6HR MAX TEMP:  34;

KIRKSVILLE     CLOUDY    30  21  69 SE14      30.05F WCI  19
6HR MIN TEMP:  30; 6HR MAX TEMP:  32;


$$
MOZ066>068-077>081-088>096-101>105-030700-
...SOUTHWEST MISSOURI...

CITY           SKY/WX    TMP DP  RH WIND       PRES   REMARKS
SPRINGFIELD    CLOUDY    34  24  67 S16       30.05F WCI  24
6HR MIN TEMP:  34; 6HR MAX TEMP:  35;

JOPLIN         CLOUDY    35  30  82 S7        30.04F WCI  29
6HR MIN TEMP:  35; 6HR MAX TEMP:  35;


$$
MOZ032>034-039>042-045>050-055>058-069>072-030700-
...CENTRAL MISSOURI...

CITY           SKY/WX    TMP DP  RH WIND       PRES   REMARKS
COLUMBIA       CLOUDY    32  22  66 SE10      30.07F WCI  24
6HR MIN TEMP:  32; 6HR MAX TEMP:  34; 6HR PCP: TRACE;

JEFFERSON CITY CLOUDY    33  24  69 E7        30.09F WCI  27
6HR MIN TEMP:  33; 6HR MAX TEMP:  35;

ROLLA          CLOUDY    34  20  56 S15       30.05F WCI  24
6HR MIN TEMP:  33; 6HR MAX TEMP:  34;

SEDALIA        CLOUDY    35  24  64 S7        30.04F WCI  29
6HR MIN TEMP:  34; 6HR MAX TEMP:  35;

WHITEMAN AFB   CLOUDY    35  26  69 S9        30.02F WCI  28
WARRENSBURG    CLOUDY    34  27  75 SE7       30.03F WCI  28
OSAGE BEACH    CLOUDY    36  19  51 S8        30.06F WCI  29

$$
MOZ051-052-059>065-030700-
...EAST CENTRAL MISSOURI...

CITY           SKY/WX    TMP DP  RH WIND       PRES   REMARKS
ST LOUIS INTL  CLOUDY    33  21  61 SE10      30.18F WCI  25
6HR MIN TEMP:  31; 6HR MAX TEMP:  34;

SPIRIT OF STL  CLOUDY    32  20  61 E9        30.14F WCI  24
6HR MIN TEMP:  31; 6HR MAX TEMP:  32;

ST CHARLES     CLOUDY    31  22  69 SE12      30.17F WCI  22
6HR MIN TEMP:  26; 6HR MAX TEMP:  31;


$$
MOZ072>076-082>087-097>100-106>115-030700-
...SOUTH CENTRAL AND SOUTHEAST MISSOURI...

CITY           SKY/WX    TMP DP  RH WIND       PRES   REMARKS
CAPE GIRARDEAU CLOUDY    34  27  75 E6        30.21F WCI  29
6HR MIN TEMP:  34; 6HR MAX TEMP:  38;

FARMINGTON     CLOUDY    34  23  64 SE9       30.18F WCI  26
6HR MIN TEMP:  30; 6HR MAX TEMP:  34;

POPLAR BLUFF   CLOUDY    35  24  64 CALM      30.20F
6HR MIN TEMP:  34; 6HR MAX TEMP:  35;

WEST PLAINS    CLOUDY    31  23  72 SE9       30.14F WCI  23
6HR MIN TEMP:  31; 6HR MAX TEMP:  36;


$$



USA.gov is the U.S. government's official web portal to all federal, state and local government web resources and services.